Starlink 32291

operational
NORAD ID: 62442 Int'l Des: 2024-251 Owner: SPXS Country: US Constellation: starlink
LEOCIRCULAR

About Starlink 32291

Description loading...

Live Position

Loading 3D Globe...

Upcoming Passes

Altitude History

Altitude vs Time

uPlot chart will show altitude changes over time

Two-Line Element Set

1 62442U 24251L 25351.29536289 .00023528 00000-0 80351-3 0 9992
2 62442 53.1613 358.0036 0001308 52.4370 307.6750 15.30219165 55020
Epoch: Dec 17, 2025 • Age: 9 hours

Current Status

Altitude 475.6 km
Velocity 7.63 km/s
Sub-Earth Point 11.31°N, 153.45°W
Launch Date Dec 29, 2024
Age 0.9 years
Type internet

Technical Details

Classification Payload
Mass 730.00 kg
Dry Mass 700.00 kg
Total Mass 730.00 kg
Length 0.30 m
Diameter 4.10 m
Span 29.00 m
Shape Box + pan
Manufacturer SPXS
Bus Type Starlink V2M
Phase Status In Orbit
Owner/State SPXS/US

Large Constellations

Loading constellations...